Location: Humble ISD Astronomical Observatory
(29.9680°N, 95.2620°W)
Time: 16:57:02
(UTC-05:00)

Envisat - Visible Passes

Search period start: 15 October 2019 00:00
Search period end: 25 October 2019 00:00
Orbit: 764 x 766 km, 98.1° (Epoch: 15 October)

Date Brightness Start Highest point End Pass type
(mag) Time Alt. Az. Time Alt. Az. Time Alt. Az.
15 Oct 5.5 20:34:07 10° SW 20:37:57 22° W 20:41:49 10° NW visible
16 Oct 3.8 19:56:08 10° S 20:01:05 54° W 20:06:03 10° NNW visible
17 Oct 3.0 19:19:23 10° SSE 19:24:21 60° ENE 19:29:21 10° N visible
17 Oct 6.2 21:02:25 10° WSW 21:03:39 11° W 21:04:53 10° WNW visible
18 Oct 5.0 20:22:20 10° SSW 20:26:39 28° W 20:30:59 10° NW visible
19 Oct 6.5 06:59:49 10° ENE 07:02:14 13° E 07:04:38 10° ESE visible
19 Oct 3.3 19:44:46 10° S 19:49:48 72° WSW 19:54:53 10° NNW visible
20 Oct 3.3 19:08:20 10° SE 19:13:08 46° ENE 19:17:58 10° N visible
20 Oct 6.0 20:49:31 10° SW 20:52:18 15° W 20:55:06 10° WNW visible
21 Oct 4.5 20:10:41 10° SSW 20:15:20 37° W 20:20:01 10° NNW visible
22 Oct 3.0 19:33:29 10° SSE 19:38:34 87° ENE 19:43:39 10° NNW visible
23 Oct 5.6 20:37:22 10° SW 20:40:57 19° W 20:44:34 10° NW visible
24 Oct 4.0 19:59:11 10° S 20:04:04 48° W 20:08:58 10° NNW visible
